カタログに戻る

BREEZE-M DEB

LostHEO
NORAD 38603·DEBRIS·🇷🇺 Russia

打ち上げ Mar 14, 2008 から Baikonur Cosmodrome

Loading…

次のパス (今後24時間)

TLE

古いSource: Space-Track

元期: Nov 26, 2025, 08:33 UTC

1 38603U 08011BA  25330.35659569  .00010257  00000-0  11035-1 0  9997
2 38603  49.5001 268.5149 6444084 235.7422  46.1755  3.31430404 19124

AllMySatでBREEZE-M DEBをリアルタイム追跡

Download on the App Store